This is the latest recevied weather packets stored in our database for station/object KC5DAQ-2. If no packets are shown the sender has not sent any weather packets the latest 10 day(s).
| Time | Temp. | Humidity | Pressure | Rain* | Wind** | Luminosity | Snow |
|---|---|---|---|---|---|---|---|
| 1788651783 | 26.67° C | 94% | 1004.1 hPa | 0.25 mm | - | 12 W/m² | - |
| 1788651724 | 26.67° C | 94% | 1004.1 hPa | 0.25 mm | - | 12 W/m² | - |
| 1788651662 | 26.67° C | 94% | 1004.1 hPa | 0.51 mm | - | 12 W/m² | - |
| 1788651603 | 26.67° C | 94% | 1004.1 hPa | 0.51 mm | - | 12 W/m² | - |
| 1788651545 | 26.67° C | 94% | 1004.1 hPa | 0.76 mm | - | 12 W/m² | - |
| 1788651483 | 26.67° C | 94% | 1004 hPa | 1.02 mm | - | 16 W/m² | - |
| 1788651423 | 26.67° C | 94% | 1004 hPa | 1.27 mm | - | 16 W/m² | - |
| 1788651364 | 26.67° C | 93% | 1003.9 hPa | 1.78 mm | - | 16 W/m² | - |
| 1788651303 | 26.67° C | 93% | 1003.9 hPa | 2.29 mm | - | 16 W/m² | - |
| 1788651245 | 26.67° C | 93% | 1003.9 hPa | 2.54 mm | - | 21 W/m² | - |
| 1788651182 | 26.67° C | 93% | 1003.9 hPa | 2.79 mm | - | 21 W/m² | - |
| 1788651123 | 26.67° C | 93% | 1004 hPa | 3.05 mm | - | 21 W/m² | - |
| 1788651062 | 26.67° C | 92% | 1004 hPa | 3.56 mm | - | 21 W/m² | - |
| 1788651003 | 26.67° C | 92% | 1003.9 hPa | 4.06 mm | - | 25 W/m² | - |
| 1788650942 | 26.67° C | 92% | 1004 hPa | 4.57 mm | - | 25 W/m² | - |
| 1788650884 | 26.67° C | 92% | 1004 hPa | 4.83 mm | - | 26 W/m² | - |
| 1788650823 | 26.67° C | 92% | 1004 hPa | 5.33 mm | - | 26 W/m² | - |
| 1788650764 | 26.67° C | 91% | 1004 hPa | 6.1 mm | - | 26 W/m² | - |
| 1788650704 | 26.67° C | 91% | 1004.1 hPa | 6.6 mm | - | 26 W/m² | - |
| 1788650644 | 26.67° C | 91% | 1004.1 hPa | 6.86 mm | - | 26 W/m² | - |
| 1788650582 | 27.22° C | 91% | 1004.2 hPa | 7.11 mm | - | 26 W/m² | - |
| 1788650525 | 27.22° C | 91% | 1004.2 hPa | 7.62 mm | - | 23 W/m² | - |
| 1788650465 | 27.22° C | 90% | 1004.3 hPa | 7.62 mm | - | 23 W/m² | - |
| 1788650405 | 27.22° C | 90% | 1004.2 hPa | 7.87 mm | - | 23 W/m² | - |
| 1788650344 | 27.22° C | 90% | 1004.4 hPa | 7.87 mm | - | 23 W/m² | - |
* Rain latest hour (hover to see other rain measurements)
** Current wind speed in m/s (hover to see current wind gust speed)